When you browse on this site, cookies collect data to enhance your experience and personalize the content and advertising you see.
Visit our Privacy Policy to learn more. By continuing to use the site, you agree to this use of cookies and data.
  • Em Portugal
  • Lista de países
  • Para 7 dias
  • Temperatura da água
  • Mapa do tempo
  • Widgets de tempo
  • user-avatar
    Iniciar Sessão

    Previsão horária em Manacor

    Hoje, 24 Agosto, Sábado

    Tempo Temperatura Precipitação Vento Pressão Humidade
    00:00 +23°C° 0 mm 1 m/s 753 mmHg 87%
    01:00 +23°C° 0 mm 1 m/s 753 mmHg 87%
    02:00 +23°C° 0 mm 1 m/s 753 mmHg 87%
    03:00 +23°C° 0 mm 1 m/s 753 mmHg 88%
    04:00 +23°C° 0 mm 1 m/s 753 mmHg 86%
    05:00 +24°C° 0 mm 1 m/s 753 mmHg 85%
    06:00 +24°C° 0 mm 1 m/s 753 mmHg 83%
    07:00 +26°C° 0 mm 2 m/s 754 mmHg 74%
    08:00 +28°C° 0 mm 2 m/s 754 mmHg 64%
    09:00 +30°C° 0 mm 2 m/s 754 mmHg 54%
    10:00 +30°C° 0 mm 3 m/s 754 mmHg 52%
    11:00 +31°C° 0 mm 3 m/s 754 mmHg 50%
    12:00 +31°C° 0 mm 3 m/s 754 mmHg 48%
    13:00 +31°C° 0 mm 3 m/s 754 mmHg 48%
    14:00 +31°C° 0 mm 3 m/s 754 mmHg 49%
    15:00 +31°C° 0 mm 3 m/s 753 mmHg 49%
    16:00 +30°C° 0 mm 3 m/s 753 mmHg 54%
    17:00 +29°C° 0 mm 3 m/s 753 mmHg 58%
    18:00 +28°C° 0 mm 2 m/s 752 mmHg 63%
    19:00 +27°C° 0 mm 2 m/s 753 mmHg 68%
    20:00 +25°C° 0 mm 2 m/s 753 mmHg 74%
    21:00 +24°C° 0 mm 1 m/s 753 mmHg 80%
    22:00 +24°C° 0 mm 1 m/s 753 mmHg 80%
    23:00 +24°C° 0 mm 1 m/s 753 mmHg 80%

    Amanhã, 25 Agosto, Domingo

    Tempo Temperatura Precipitação Vento Pressão Humidade
    00:00 +24°C° 0 mm 1 m/s 753 mmHg 80%
    01:00 +23°C° 0 mm 1 m/s 753 mmHg 81%
    02:00 +23°C° 0 mm 1 m/s 752 mmHg 81%
    03:00 +23°C° 0 mm 1 m/s 752 mmHg 81%
    04:00 +23°C° 0 mm 1 m/s 752 mmHg 79%
    05:00 +23°C° 0 mm 1 m/s 752 mmHg 78%
    06:00 +24°C° 0 mm 1 m/s 752 mmHg 77%
    07:00 +26°C° 0 mm 2 m/s 753 mmHg 67%
    08:00 +28°C° 0 mm 2 m/s 753 mmHg 57%
    09:00 +30°C° 0 mm 3 m/s 753 mmHg 47%
    10:00 +31°C° 0 mm 3 m/s 753 mmHg 45%
    11:00 +32°C° 0 mm 4 m/s 753 mmHg 43%
    12:00 +33°C° 0 mm 4 m/s 753 mmHg 41%
    13:00 +33°C° 0 mm 4 m/s 753 mmHg 42%
    14:00 +32°C° 0 mm 4 m/s 753 mmHg 43%
    15:00 +32°C° 0 mm 4 m/s 752 mmHg 44%
    16:00 +30°C° 0 mm 4 m/s 752 mmHg 50%
    17:00 +29°C° 0 mm 3 m/s 752 mmHg 55%
    18:00 +28°C° 0 mm 3 m/s 752 mmHg 61%
    19:00 +27°C° 0 mm 3 m/s 752 mmHg 66%
    20:00 +25°C° 0 mm 2 m/s 752 mmHg 72%
    21:00 +24°C° 0 mm 2 m/s 753 mmHg 78%
    22:00 +24°C° 0 mm 2 m/s 752 mmHg 78%
    23:00 +24°C° 0 mm 2 m/s 752 mmHg 78%

    Depois de amanhã, 26 Agosto, Segunda-feira

    Tempo Temperatura Precipitação Vento Pressão Humidade
    00:00 +23°C° 0 mm 2 m/s 752 mmHg 78%
    01:00 +23°C° 0 mm 2 m/s 752 mmHg 78%
    02:00 +23°C° 0 mm 1 m/s 752 mmHg 78%
    03:00 +23°C° 0 mm 1 m/s 751 mmHg 78%
    04:00 +23°C° 0 mm 2 m/s 751 mmHg 76%
    05:00 +23°C° 0 mm 2 m/s 751 mmHg 74%
    06:00 +24°C° 0 mm 2 m/s 751 mmHg 72%
    07:00 +26°C° 0 mm 3 m/s 752 mmHg 64%
    08:00 +28°C° 0 mm 3 m/s 752 mmHg 55%
    09:00 +30°C° 0 mm 4 m/s 752 mmHg 47%
    10:00 +30°C° 0 mm 4 m/s 752 mmHg 46%
    11:00 +32°C° 0 mm 4 m/s 752 mmHg 46%
    12:00 +32°C° 0 mm 4 m/s 752 mmHg 45%
    13:00 +32°C° 0 mm 4 m/s 752 mmHg 47%
    14:00 +32°C° 0 mm 4 m/s 751 mmHg 49%
    15:00 +32°C° 0 mm 4 m/s 751 mmHg 51%
    16:00 +29°C° 0 mm 4 m/s 751 mmHg 56%
    17:00 +28°C° 0 mm 4 m/s 751 mmHg 61%
    18:00 +27°C° 0 mm 4 m/s 750 mmHg 66%
    19:00 +26°C° 0 mm 4 m/s 751 mmHg 72%
    20:00 +25°C° 0 mm 3 m/s 751 mmHg 79%
    21:00 +24°C° 0 mm 2 m/s 751 mmHg 85%
    22:00 +24°C° 0 mm 2 m/s 751 mmHg 84%
    23:00 +24°C° 0 mm 2 m/s 751 mmHg 84%

    27 Agosto, Terça-feira

    Tempo Temperatura Precipitação Vento Pressão Humidade
    00:00 +25°C° 0 mm 2 m/s 751 mmHg 83%
    01:00 +24°C° 0 mm 2 m/s 751 mmHg 84%
    02:00 +24°C° 0 mm 3 m/s 750 mmHg 84%
    03:00 +24°C° 0 mm 3 m/s 750 mmHg 85%
    04:00 +24°C° 0.1 mm 3 m/s 750 mmHg 84%
    05:00 +25°C° 0.1 mm 3 m/s 750 mmHg 83%
    06:00 +25°C° 0.1 mm 3 m/s 750 mmHg 82%
    07:00 +26°C° 0.5 mm 3 m/s 750 mmHg 73%
    08:00 +28°C° 0.5 mm 4 m/s 751 mmHg 65%
    09:00 +29°C° 0.5 mm 4 m/s 751 mmHg 56%
    10:00 +30°C° 0.1 mm 4 m/s 751 mmHg 56%
    11:00 +30°C° 0.1 mm 4 m/s 751 mmHg 55%
    12:00 +32°C° 0.1 mm 4 m/s 751 mmHg 55%
    13:00 +30°C° 0.4 mm 4 m/s 751 mmHg 55%
    14:00 +30°C° 0.4 mm 4 m/s 750 mmHg 56%
    15:00 +30°C° 0.4 mm 3 m/s 750 mmHg 57%
    16:00 +29°C° 0.3 mm 3 m/s 750 mmHg 60%
    17:00 +29°C° 0.3 mm 3 m/s 750 mmHg 63%
    18:00 +28°C° 0.3 mm 2 m/s 750 mmHg 66%
    19:00 +27°C° 0.5 mm 3 m/s 750 mmHg 70%
    20:00 +26°C° 0.5 mm 3 m/s 750 mmHg 73%
    21:00 +26°C° 0.5 mm 3 m/s 751 mmHg 76%
    22:00 +25°C° 0.1 mm 3 m/s 751 mmHg 76%
    23:00 +25°C° 0.1 mm 2 m/s 751 mmHg 76%

    28 Agosto, Quarta-feira

    Tempo Temperatura Precipitação Vento Pressão Humidade
    00:00 +25°C° 0.1 mm 1 m/s 751 mmHg 76%
    01:00 +25°C° 0.1 mm 2 m/s 750 mmHg 76%
    02:00 +25°C° 0.1 mm 2 m/s 750 mmHg 75%
    03:00 +24°C° 0.1 mm 2 m/s 750 mmHg 75%
    04:00 +24°C° 0.3 mm 3 m/s 750 mmHg 76%
    05:00 +24°C° 0.3 mm 3 m/s 751 mmHg 78%
    06:00 +24°C° 0.3 mm 3 m/s 751 mmHg 79%
    07:00 +26°C° 0 mm 4 m/s 751 mmHg 72%
    08:00 +27°C° 0 mm 4 m/s 751 mmHg 65%
    09:00 +28°C° 0 mm 5 m/s 752 mmHg 58%
    10:00 +29°C° 0 mm 5 m/s 752 mmHg 55%
    11:00 +30°C° 0 mm 4 m/s 752 mmHg 51%
    12:00 +32°C° 0 mm 4 m/s 752 mmHg 48%
    13:00 +30°C° 0 mm 4 m/s 752 mmHg 49%
    14:00 +30°C° 0 mm 4 m/s 752 mmHg 50%
    15:00 +30°C° 0 mm 4 m/s 751 mmHg 51%
    16:00 +29°C° 0 mm 4 m/s 751 mmHg 55%
    17:00 +28°C° 0 mm 3 m/s 751 mmHg 59%
    18:00 +27°C° 0 mm 3 m/s 751 mmHg 63%
    19:00 +26°C° 0 mm 2 m/s 751 mmHg 67%
    20:00 +25°C° 0 mm 2 m/s 752 mmHg 71%
    21:00 +24°C° 0 mm 1 m/s 752 mmHg 74%
    22:00 +24°C° 0 mm 1 m/s 752 mmHg 73%
    23:00 +24°C° 0 mm 1 m/s 752 mmHg 73%

    29 Agosto, Quinta-feira

    Tempo Temperatura Precipitação Vento Pressão Humidade
    00:00 +24°C° 0 mm 1 m/s 752 mmHg 72%
    01:00 +24°C° 0 mm 1 m/s 752 mmHg 73%
    02:00 +23°C° 0 mm 1 m/s 752 mmHg 73%
    03:00 +23°C° 0 mm 1 m/s 751 mmHg 74%
    04:00 +24°C° 0 mm 1 m/s 752 mmHg 73%
    05:00 +24°C° 0 mm 1 m/s 752 mmHg 72%
    06:00 +24°C° 0 mm 1 m/s 752 mmHg 71%
    07:00 +26°C° 0 mm 1 m/s 752 mmHg 62%
    08:00 +28°C° 0 mm 1 m/s 752 mmHg 53%
    09:00 +30°C° 0 mm 1 m/s 753 mmHg 44%
    10:00 +30°C° 0 mm 2 m/s 753 mmHg 44%
    11:00 +31°C° 0 mm 2 m/s 753 mmHg 44%
    12:00 +31°C° 0 mm 2 m/s 753 mmHg 43%
    13:00 +31°C° 0 mm 3 m/s 753 mmHg 46%
    14:00 +31°C° 0 mm 3 m/s 752 mmHg 48%
    15:00 +30°C° 0 mm 3 m/s 752 mmHg 50%
    16:00 +29°C° 0 mm 2 m/s 752 mmHg 54%
    17:00 +29°C° 0 mm 2 m/s 752 mmHg 58%
    18:00 +28°C° 0 mm 2 m/s 752 mmHg 62%
    19:00 +27°C° 0 mm 2 m/s 752 mmHg 64%
    20:00 +26°C° 0 mm 1 m/s 752 mmHg 67%
    21:00 +26°C° 0 mm 1 m/s 752 mmHg 70%
    22:00 +25°C° 0 mm 1 m/s 752 mmHg 71%
    23:00 +25°C° 0 mm 1 m/s 752 mmHg 72%
    Mostrar mais